This is the latest recevied weather packets stored in our database for station/object ON7MOR-11. If no packets are shown the sender has not sent any weather packets the latest 10 day(s).
| Time | Temp. | Humidity | Pressure | Rain* | Wind** | Luminosity | Snow |
|---|---|---|---|---|---|---|---|
| 1777635775 | 20.56° C | 23% | 1023.9 hPa | - | - | - | - |
| 1777634875 | 20.56° C | 25% | 1024.2 hPa | - | - | - | - |
| 1777633975 | 20.56° C | 27% | 1024.3 hPa | - | - | - | - |
| 1777633075 | 20.56° C | 26% | 1024.4 hPa | - | - | - | - |
| 1777632175 | 20° C | 28% | 1024.5 hPa | - | - | - | - |
| 1777631274 | 20° C | 27% | 1024.7 hPa | - | - | - | - |
| 1777630374 | 20.56° C | 26% | 1024.8 hPa | - | - | - | - |
| 1777629474 | 20.56° C | 26% | 1024.9 hPa | - | - | - | - |
| 1777628574 | 20.56° C | 28% | 1025.1 hPa | - | - | - | - |
| 1777627674 | 21.11° C | 27% | 1025.2 hPa | - | - | - | - |
| 1777625874 | 21.67° C | 26% | 1025.2 hPa | - | - | - | - |
| 1777624974 | 21.67° C | 26% | 1025.2 hPa | - | - | - | - |
| 1777624074 | 21.67° C | 26% | 1025.4 hPa | - | - | - | - |
| 1777623173 | 21.11° C | 27% | 1025.5 hPa | - | - | - | - |
| 1777622272 | 21.11° C | 27% | 1025.5 hPa | - | - | - | - |
| 1777621377 | 21.11° C | 28% | 1025.5 hPa | - | - | - | - |
| 1777620477 | 20° C | 28% | 1025.5 hPa | - | - | - | - |
| 1777619576 | 20° C | 29% | 1025.4 hPa | - | - | - | - |
| 1777618676 | 18.33° C | 31% | 1025.5 hPa | - | - | - | - |
| 1777617776 | 16.67° C | 33% | 1025.7 hPa | - | - | - | - |
| 1777616876 | 16.67° C | 33% | 1025.7 hPa | - | - | - | - |
| 1777615976 | 17.22° C | 32% | 1025.9 hPa | - | - | - | - |
| 1777615076 | 17.22° C | 33% | 1025.8 hPa | - | - | - | - |
| 1777614176 | 16.67° C | 33% | 1025.7 hPa | - | - | - | - |
| 1777613276 | 16.67° C | 33% | 1025.7 hPa | - | - | - | - |
* Rain since midnight (hover to see other rain measurements)
** Current wind speed in m/s (hover to see current wind gust speed)